Regional Weather Roundup
Issued by NWS

Home | Current Version | Previous Version | Text Only | Print | Product List | Glossary On
Versions: 1 2 3 4 5 6 7 8 9 10 11 12 13 14 15 16 17 18 19 20 21 22 23 24 25 26 27 28 29 30 31 32 33 34 35 36 37 38 39 40 41 42 43 44 45 46 47 48 49 50
000
ASHW40 PHFO 271310
RWRHI

WEATHER ROUNDUP FOR HAWAII
NATIONAL WEATHER SERVICE HONOLULU HI
300 AM HST WED MAY 27 2015

THIS IS AN AUTOMATED REPORT THAT HAS NOT BEEN QUALITY CONTROLLED.

NOTE..."FAIR" INDICATES FEW OR NO CLOUDS BELOW 12,000 FEET WITH NO
SIGNIFICANT WEATHER AND/OR OBSTRUCTIONS TO VISIBILITY.

* - THESE SITES REPORT LIMITED FIELDS

HIZ001>004-271400-
KAUAI-NIIHAU-

CITY           SKY/WX    TMP DP  RH WIND       PRES   REMARKS
LIHUE APT      PTCLDY    68  59  73 W5        29.94F
PORT ALLEN*    NOT AVBL
POIPU*           N/A     70 N/A N/A N2          N/A
PRINCEVILLE*     N/A     68 N/A N/A MISG        N/A
KOKOLE POINT*  NOT AVBL
MOLOAA DAIRY*  NOT AVBL
WAIMEA HTS*    NOT AVBL
PUU OPAE*      NOT AVBL
PUU LUA*       NOT AVBL
MAKAHA RIDGE*  NOT AVBL
$$

HIZ005>011-271400-
OAHU-

CITY           SKY/WX    TMP DP  RH WIND       PRES   REMARKS
HONOLULU       MOCLDY    72  63  73 CALM      29.92F
KALAELOA       PTCLDY    68  60  75 CALM      29.94F
KANEOHE MCB    PTCLDY    70  65  84 CALM      29.91F
WHEELER FIELD  FAIR      65  59  81 W6        29.92F
BELLOWS*       NOT AVBL
KAHUKU*        NOT AVBL
WHEELER*       NOT AVBL
WAIANAE HARBOR NOT AVBL
DILLINGHAM*      N/A     66  59  77 MISG        N/A
KAHUKU TRN*      N/A     64  63  94 SE1         N/A
KAWAILOA*        N/A     64  61  88 E3          N/A
KII*             N/A     68  64  88 CALM        N/A
MAKUA RANGE*     N/A     72  59  64 E9          N/A
OAHU FOREST NW NOT AVBL
SCHOFIELD BRK*   N/A     63  59  88 MISG        N/A
SCHOFIELD S*   NOT AVBL
WAIANAE VLY*   NOT AVBL
KUAOKALA*      NOT AVBL
HONOULIUULI*   NOT AVBL
MOKUOLOE IS*     N/A    N/A N/A N/A MISG        N/A
PALEHUA*       NOT AVBL
WAIAWA PHB*    NOT AVBL
$$

HIZ012>013-271400-
MOLOKAI-

CITY           SKY/WX    TMP DP  RH WIND       PRES   REMARKS
MOLOKAI AIRPT  CLOUDY    69  62  78 N5        29.93F
KALAUPAPA      NOT AVBL
MAKAPULAPAI*   NOT AVBL
MOLOKAI 1*     NOT AVBL
PUU ALII*      NOT AVBL
$$

HIZ016-271400-
KAHOOLAWE-

CITY           SKY/WX    TMP DP  RH WIND       PRES   REMARKS
KAHOOLAWE*     NOT AVBL
HAKIOAWA*      NOT AVBL
HONOKANAIA*      N/A     72  63  72 NE5G12    29.93F
KANELOA*         N/A     70  63  78 E8        29.99F
KEALIALALO*    NOT AVBL
LUA MAKIKA*    NOT AVBL
$$

HIZ014>015-271400-
LANAI-

CITY           SKY/WX    TMP DP  RH WIND       PRES   REMARKS
LANAI CITY     FAIR      64  61  90 E3        29.97F
LANAI 1*       NOT AVBL
$$

HIZ017>028-271400-
MAUI-

CITY           SKY/WX    TMP DP  RH WIND       PRES   REMARKS
KAHULUI        CLEAR     71  65  81 N6        29.93F
KAPALUA-W MAUI NOT AVBL
HANA AIRPORT   NOT AVBL
HANA*          NOT AVBL
HALEAKALA SUMM NOT AVBL
MAALAEA BAY*   NOT AVBL
HALEAKALA*     NOT AVBL
KAUPO GAP*     NOT AVBL
KULA 1*          N/A     52  47  84 SE13G25     N/A
$$

HIZ023>026-271400-
BIG ISLAND OF HAWAII COAST AND LOWER SLOPES-

CITY           SKY/WX    TMP DP  RH WIND       PRES   REMARKS
KAILUA KONA    CLOUDY    75  66  73 CALM      29.90F
HILO           CLOUDY    69  65  86 CALM      29.93F
HONOKAA*       NOT AVBL
KAWAIHAE MWT*  NOT AVBL
KAWAIHAE*        N/A     77 N/A N/A N3          N/A
SOUTH POINT*   NOT AVBL
UPOLU AIRPORT* NOT AVBL
KAMUELA*       CLOUDY    63  55  77 NE7       30.01S
HAKALAU*         N/A     46  46 100 SW5         N/A
KALOKO-HONOKO* NOT AVBL
PALI 2*          N/A     63  63 100 VRB3        N/A
KEALAKOMO*       N/A     84  72  65 NE5G14      N/A
KAUPULEHU*     NOT AVBL
KAPAPALA*        N/A     64  64  98 N2          N/A
LOWER KAHUKU*  NOT AVBL
PUHE CS*       NOT AVBL
PUHO CS*       NOT AVBL
PTA KEAMUKU*     N/A     61  57  88 CALM        N/A
WAIKOLOA*      NOT AVBL
$$

HIZ027>028-271400-
BIG ISLAND OF HAWAII INTERIOR AND SUMMMITS-

CITY           SKY/WX    TMP DP  RH WIND       PRES   REMARKS
BRADSHAW FIELD CLOUDY    55  49  82 W1        30.20F
MK VISITOR CEN NOT AVBL
MAUNA KEA*       N/A     36  18  48 NW25        N/A  WCI  23
MAUNA LOA*       N/A    N/A N/A N/A MISG        N/A
MAUNA LOA 1*   NOT AVBL
PTA KIPUKA*      N/A     55  55 100 S2          N/A
PTA RANGE 17*    N/A     54  52  94 SW1         N/A
PTA WEST*        N/A     70  70 100 VRB3        N/A
NENE CABIN*    NOT AVBL
AHUMOA*        NOT AVBL
PTA PORTABLE*  NOT AVBL
PUU MALI*        N/A     48  46  93 E2          N/A
$$

HIC003-271400-
NORTHWEST ISLANDS-

CITY           SKY/WX    TMP DP  RH WIND       PRES   REMARKS
MIDWAY ISLAND  CLEAR    N/A N/A N/A CALM      30.12F
MIDWAY NOS*    NOT AVBL
FRENCH FRIGATE NOT AVBL
$$

PHZ110>124-180-271400-
BUOY REPORTS

STATION/POSITION TIME  TEMP    WIND        PRES    WAVE   SWELL
                       AIR SEA DIR/SP/G            HT/PER HT/DIR
                 (UTC) (F)     (DEG/KT/KT) (MB)    (FT/S) (FT/D)
BUOY 51001       NOT AVBL
BUOY 51101       1300   72 74   40/ 10/ 12 1015.2F   5/13   5/190
BUOY 51100       NOT AVBL
BUOY 51002       1300   76 79   40/  2/  4 1012.3F   4/13   5/190
BUOY 51003       1200   76 79   60/  6/  6 1013.8F   5/13   5
BUOY 51004       1218   77 79  110/ 14/ 16 1012.6F   5/ 9   5/ 20
BARBERS PT BUOY  NOT AVBL
WAIMEA BAY BUOY  1300      77                N/A     4/ 8   2/320
KAILUA BAY BUOY  1300      77                N/A     4/ 8   2/ 80
LANAI BUOY       NOT AVBL
BARBERS PT 2     1300      76                N/A     3/15   2/190
PAUWELA MAUI     1300      76                N/A     4/ 8   2/320
HILO             1300      77                N/A     4/ 8   2
KANEOHE BAY BUOY 1300      77                N/A     4/ 8   2/350
HANALEI KAUAI    1300      78                N/A     5/ 8   2/310
KAHULUI HARBOR   1300   72 78  300/  8/  9 1013.1F
HONOLULU HARBOR  1300   73 76  340/  4/  5 1013.2F
KILO NALU        NOT AVBL
HILO HARBOR      1300   70 76  140/  4/  6 1013.3S
MOKUOLOE         1300      78              1013.7F
NAWILIWILI       1300   66 78  270/  4/  6 1013.8F
WHOTS BUOY       NOT AVBL
BUOY 51028       NOT AVBL
$$

......................KEY........................................
  SKY/WX - SKY CONDITIONS/PRESENT WEATHER
  TMP    - TEMPERATURE IN FAHRENHEIT
  DWPT   - DEWPOINT IN FAHRENHEIT
  RH     - RELATIVE HUMIDITY IN PERCENT
  WIND   - DIRECTION AND SPEED /MPH FOR ISLANDS...KTS FOR BUOYS/
  PRES   - MEAN SEA LEVEL PRESSURE IN INCHES OF HG
  VSB    - VISIBILITY IN MILES
  HX     - HEAT INDEX
  WCI    - WIND CHILL INDEX
  VRB    - VARIABLE WIND DIRECTION
  N/A    - NOT AVAILABLE


USA.gov is the U.S. government's official web portal to all federal, state and local government web resources and services.